When you browse on this site, cookies collect data to enhance your experience and personalize the content and advertising you see.
Visit our Privacy Policy to learn more. By continuing to use the site, you agree to this use of cookies and data.
  • en France
  • Liste des pays
  • À 7 jours
  • Température de l'eau
  • Carte satellitaire
  • Carte météo
  • Widgets météo
  • user-avatar
    Se connecter

    Météo par heure à Lenkoran

    Ce jour, 26 Juin, Mercredi

    Heure Température Précipitation Vent Pression Humidité
    00:00 +19°C° 0 mm 1 m/s 634 mmHg 35%
    01:00 +19°C° 0 mm 1 m/s 634 mmHg 35%
    02:00 +19°C° 0 mm 1 m/s 634 mmHg 35%
    03:00 +18°C° 0 mm 1 m/s 634 mmHg 35%
    04:00 +19°C° 0 mm 1 m/s 634 mmHg 36%
    05:00 +21°C° 0 mm 1 m/s 635 mmHg 38%
    06:00 +22°C° 0 mm 1 m/s 636 mmHg 39%
    07:00 +23°C° 0 mm 2 m/s 636 mmHg 35%
    08:00 +25°C° 0 mm 3 m/s 637 mmHg 31%
    09:00 +26°C° 0 mm 3 m/s 637 mmHg 27%
    10:00 +27°C° 0 mm 4 m/s 637 mmHg 28%
    11:00 +27°C° 0 mm 5 m/s 638 mmHg 28%
    12:00 +28°C° 0 mm 5 m/s 638 mmHg 29%
    13:00 +28°C° 0 mm 5 m/s 637 mmHg 30%
    14:00 +27°C° 0 mm 5 m/s 637 mmHg 31%
    15:00 +27°C° 0 mm 5 m/s 636 mmHg 32%
    16:00 +26°C° 0 mm 4 m/s 636 mmHg 36%
    17:00 +23°C° 0 mm 4 m/s 636 mmHg 40%
    18:00 +22°C° 0 mm 3 m/s 635 mmHg 43%
    19:00 +21°C° 0 mm 3 m/s 635 mmHg 43%
    20:00 +19°C° 0 mm 2 m/s 635 mmHg 43%
    21:00 +18°C° 0 mm 1 m/s 634 mmHg 43%
    22:00 +18°C° 0 mm 1 m/s 634 mmHg 41%
    23:00 +18°C° 0 mm 1 m/s 634 mmHg 39%

    Demain, 27 Juin, Jeudi

    Heure Température Précipitation Vent Pression Humidité
    00:00 +16°C° 0 mm 1 m/s 634 mmHg 37%
    01:00 +16°C° 0 mm 1 m/s 634 mmHg 42%
    02:00 +15°C° 0 mm 1 m/s 634 mmHg 48%
    03:00 +15°C° 0 mm 2 m/s 633 mmHg 53%
    04:00 +16°C° 0 mm 2 m/s 634 mmHg 55%
    05:00 +18°C° 0 mm 1 m/s 634 mmHg 56%
    06:00 +19°C° 0 mm 1 m/s 634 mmHg 57%
    07:00 +19°C° 0 mm 2 m/s 635 mmHg 53%
    08:00 +21°C° 0 mm 3 m/s 635 mmHg 49%
    09:00 +22°C° 0 mm 3 m/s 635 mmHg 44%
    10:00 +24°C° 0 mm 3 m/s 635 mmHg 43%
    11:00 +23°C° 0 mm 4 m/s 635 mmHg 42%
    12:00 +25°C° 0 mm 4 m/s 635 mmHg 41%
    13:00 +25°C° 0 mm 4 m/s 634 mmHg 42%
    14:00 +25°C° 0 mm 4 m/s 634 mmHg 43%
    15:00 +25°C° 0 mm 4 m/s 634 mmHg 43%
    16:00 +24°C° 0 mm 3 m/s 633 mmHg 48%
    17:00 +21°C° 0 mm 3 m/s 633 mmHg 52%
    18:00 +20°C° 0 mm 3 m/s 632 mmHg 57%
    19:00 +19°C° 0 mm 2 m/s 632 mmHg 60%
    20:00 +18°C° 0 mm 1 m/s 631 mmHg 62%
    21:00 +16°C° 0 mm 1 m/s 631 mmHg 65%
    22:00 +16°C° 0 mm 1 m/s 631 mmHg 63%
    23:00 +16°C° 0 mm 1 m/s 631 mmHg 61%

    Après-demain, 28 Juin, Vendredi

    Heure Température Précipitation Vent Pression Humidité
    00:00 +16°C° 0 mm 1 m/s 631 mmHg 58%
    01:00 +16°C° 0.1 mm 1 m/s 630 mmHg 60%
    02:00 +15°C° 0.1 mm 1 m/s 630 mmHg 61%
    03:00 +15°C° 0.1 mm 1 m/s 629 mmHg 63%
    04:00 +15°C° 0.1 mm 0 m/s 630 mmHg 60%
    05:00 +16°C° 0.1 mm 0 m/s 630 mmHg 58%
    06:00 +17°C° 0.1 mm 0 m/s 630 mmHg 56%
    07:00 +21°C° 0 mm 1 m/s 630 mmHg 52%
    08:00 +21°C° 0 mm 2 m/s 631 mmHg 48%
    09:00 +24°C° 0 mm 2 m/s 631 mmHg 43%
    10:00 +25°C° 0 mm 3 m/s 631 mmHg 42%
    11:00 +25°C° 0 mm 3 m/s 631 mmHg 40%
    12:00 +26°C° 0 mm 4 m/s 630 mmHg 38%
    13:00 +26°C° 0 mm 3 m/s 630 mmHg 39%
    14:00 +26°C° 0 mm 3 m/s 629 mmHg 40%
    15:00 +26°C° 0 mm 3 m/s 629 mmHg 41%
    16:00 +25°C° 0 mm 3 m/s 628 mmHg 45%
    17:00 +24°C° 0 mm 3 m/s 628 mmHg 49%
    18:00 +21°C° 0 mm 3 m/s 627 mmHg 53%
    19:00 +20°C° 0 mm 2 m/s 627 mmHg 56%
    20:00 +19°C° 0 mm 2 m/s 627 mmHg 59%
    21:00 +19°C° 0 mm 1 m/s 627 mmHg 61%
    22:00 +19°C° 0 mm 1 m/s 627 mmHg 61%
    23:00 +19°C° 0 mm 1 m/s 627 mmHg 60%

    29 Juin, Samedi

    Heure Température Précipitation Vent Pression Humidité
    00:00 +18°C° 0 mm 2 m/s 627 mmHg 60%
    01:00 +17°C° 0 mm 2 m/s 626 mmHg 60%
    02:00 +18°C° 0 mm 1 m/s 626 mmHg 60%
    03:00 +18°C° 0 mm 1 m/s 626 mmHg 60%
    04:00 +19°C° 0 mm 1 m/s 627 mmHg 58%
    05:00 +20°C° 0 mm 1 m/s 627 mmHg 56%
    06:00 +19°C° 0 mm 0 m/s 628 mmHg 53%
    07:00 +22°C° 0 mm 1 m/s 628 mmHg 50%
    08:00 +24°C° 0 mm 2 m/s 629 mmHg 47%
    09:00 +25°C° 0 mm 3 m/s 629 mmHg 44%
    10:00 +25°C° 0 mm 3 m/s 629 mmHg 44%
    11:00 +26°C° 0 mm 3 m/s 629 mmHg 44%
    12:00 +26°C° 0 mm 4 m/s 629 mmHg 45%
    13:00 +26°C° 0 mm 4 m/s 628 mmHg 48%
    14:00 +26°C° 0 mm 4 m/s 628 mmHg 51%
    15:00 +25°C° 0 mm 4 m/s 627 mmHg 54%
    16:00 +23°C° 0 mm 4 m/s 627 mmHg 59%
    17:00 +22°C° 0 mm 3 m/s 626 mmHg 63%
    18:00 +21°C° 0 mm 2 m/s 626 mmHg 67%
    19:00 +19°C° 0 mm 2 m/s 626 mmHg 70%
    20:00 +19°C° 0 mm 1 m/s 626 mmHg 72%
    21:00 +16°C° 0 mm 0 m/s 626 mmHg 75%
    22:00 +16°C° 0 mm 1 m/s 626 mmHg 73%
    23:00 +16°C° 0 mm 1 m/s 626 mmHg 71%

    30 Juin, Dimanche

    Heure Température Précipitation Vent Pression Humidité
    00:00 +15°C° 0 mm 1 m/s 626 mmHg 69%
    01:00 +15°C° 0 mm 1 m/s 626 mmHg 74%
    02:00 +14°C° 0 mm 2 m/s 626 mmHg 79%
    03:00 +14°C° 0 mm 2 m/s 627 mmHg 84%
    04:00 +14°C° 0 mm 1 m/s 627 mmHg 82%
    05:00 +15°C° 0 mm 1 m/s 628 mmHg 81%
    06:00 +15°C° 0 mm 1 m/s 628 mmHg 80%
    07:00 +16°C° 0.1 mm 1 m/s 629 mmHg 79%
    08:00 +17°C° 0.1 mm 2 m/s 629 mmHg 78%
    09:00 +17°C° 0.1 mm 3 m/s 630 mmHg 78%
    10:00 +17°C° 0.2 mm 3 m/s 630 mmHg 79%
    11:00 +17°C° 0.2 mm 4 m/s 630 mmHg 81%
    12:00 +17°C° 0.2 mm 4 m/s 629 mmHg 82%
    13:00 +17°C° 0.4 mm 4 m/s 629 mmHg 84%
    14:00 +16°C° 0.4 mm 5 m/s 629 mmHg 86%
    15:00 +16°C° 0.4 mm 5 m/s 628 mmHg 88%
    16:00 +15°C° 0.5 mm 4 m/s 628 mmHg 89%
    17:00 +15°C° 0.5 mm 4 m/s 628 mmHg 91%
    18:00 +15°C° 0.5 mm 4 m/s 628 mmHg 92%
    19:00 +15°C° 0.3 mm 4 m/s 628 mmHg 94%
    20:00 +14°C° 0.3 mm 3 m/s 629 mmHg 95%
    21:00 +14°C° 0.3 mm 3 m/s 629 mmHg 96%
    22:00 +14°C° 0.2 mm 3 m/s 629 mmHg 96%
    23:00 +15°C° 0.2 mm 2 m/s 629 mmHg 96%

    1 Juillet, Lundi

    Heure Température Précipitation Vent Pression Humidité
    00:00 +15°C° 0.2 mm 2 m/s 629 mmHg 96%
    01:00 +15°C° 0.4 mm 2 m/s 629 mmHg 96%
    02:00 +15°C° 0.4 mm 2 m/s 629 mmHg 96%
    03:00 +14°C° 0.4 mm 3 m/s 629 mmHg 96%
    04:00 +14°C° 0.5 mm 3 m/s 629 mmHg 95%
    05:00 +14°C° 0.5 mm 3 m/s 629 mmHg 95%
    06:00 +13°C° 0.5 mm 3 m/s 629 mmHg 94%
    07:00 +13°C° 0.1 mm 3 m/s 630 mmHg 91%
    08:00 +14°C° 0.1 mm 3 m/s 630 mmHg 88%
    09:00 +14°C° 0.1 mm 3 m/s 630 mmHg 85%
    10:00 +14°C° 0 mm 4 m/s 630 mmHg 83%
    11:00 +15°C° 0 mm 4 m/s 630 mmHg 80%
    12:00 +15°C° 0 mm 4 m/s 630 mmHg 78%
    13:00 +14°C° 0.1 mm 4 m/s 629 mmHg 81%
    14:00 +13°C° 0.1 mm 4 m/s 629 mmHg 83%
    15:00 +13°C° 0.1 mm 3 m/s 628 mmHg 86%
    16:00 +12°C° 0.1 mm 3 m/s 629 mmHg 87%
    17:00 +12°C° 0.1 mm 3 m/s 629 mmHg 87%
    18:00 +12°C° 0.1 mm 2 m/s 629 mmHg 88%
    19:00 +12°C° 0.2 mm 2 m/s 630 mmHg 88%
    20:00 +12°C° 0.2 mm 2 m/s 630 mmHg 89%
    21:00 +10°C° 0.2 mm 2 m/s 631 mmHg 89%
    22:00 +10°C° 0.1 mm 2 m/s 631 mmHg 87%
    23:00 +10°C° 0.1 mm 3 m/s 631 mmHg 85%
    Voir plus